Hourly Data Report for October 19, 2016

All times are specified in Local Standard Time (LST). Add 1 hour to adjust for Daylight Saving Time where and when it is observed.

ST LEONARD CS
NEW BRUNSWICK

47°09'28.050" N
67°49'55.014" W
245.00 m
810I001
71019
WIY

Download Data

Hourly Data (October 2016)
Hourly Data Report for October 19, 2016
Temp Definition
°C
Dew Point Temp Definition
°C
Rel Hum Definition
%
Wind Dir Definition
10's deg

Wind Spd Definition
km/h
Visibility Definition
km
Stn Press Definition
kPa
Hmdx Definition


Wind Chill Definition


Weather Definition


TIME
00:00 12.4 11.8 96 18 27   97.22     LegendNANA
01:00 13.4 12.7 96 19 18   97.23     LegendNANA
02:00 13.7 12.5 93 20 25   97.21     LegendNANA
03:00 12.7 11.8 95 21 13   97.29     LegendNANA
04:00 12.3 11.6 96 21 13   97.35     LegendNANA
05:00 12.0 11.4 96 23 13   97.42     LegendNANA
06:00 12.0 11.2 95 24 11   97.50     LegendNANA
07:00 11.6 10.4 92 26 17   97.58     LegendNANA
08:00 11.3 9.4 88 28 11   97.72     LegendNANA
09:00 11.7 8.3 80 28 18   97.82     LegendNANA
10:00 11.8 7.8 76 29 23   97.89     LegendNANA
11:00 12.7 7.5 71 29 20   97.93     LegendNANA
12:00 13.5 6.4 62 26 27   97.99     LegendNANA
13:00 13.6 5.4 58 27 24   98.01     LegendNANA
14:00 14.5 5.0 53 29 26   98.04     LegendNANA
15:00 14.7 4.7 51 27 22   98.09     LegendNANA
16:00 13.4 3.7 52 27 22   98.20     LegendNANA
17:00 12.4 3.9 56 28 18   98.32     LegendNANA
18:00 11.5 3.9 59 29 21   98.47     LegendNANA
19:00 10.0 4.4 68 31 14   98.58     LegendNANA
20:00 7.4 3.6 77 28 7   98.67     LegendNANA
21:00 5.5 2.7 82 26 3   98.76     LegendNANA
22:00 5.4 2.6 82 28 8   98.83     LegendNANA
23:00 3.0 1.6 91 27 7   98.93     LegendNANA

Notes on Data Quality.

Legend

  • E = Estimated
  • M = Missing
  • NA = Not Available
  • ‡ = Partner data that is not subject to review by the National Climate Archives
Date modified: